TimeCST,TemperatureF,Dew PointF,Humidity,Sea Level PressureIn,VisibilityMPH,Wind Direction,Wind SpeedMPH,Gust SpeedMPH,PrecipitationIn,Events,Conditions,WindDirDegrees,DateUTC
12:15 AM,57.2,50.0,77,30.16,10.0,North,11.5,17.3,N/A,,Overcast,10,2013-02-09 06:15:00
12:35 AM,57.2,50.0,77,30.17,10.0,North,9.2,-,N/A,,Overcast,10,2013-02-09 06:35:00
1:15 AM,57.2,50.0,77,30.18,7.0,North,11.5,-,N/A,,Overcast,10,2013-02-09 07:15:00
1:35 AM,55.4,50.0,82,30.18,10.0,North,10.4,-,N/A,,Overcast,10,2013-02-09 07:35:00
1:55 AM,55.4,50.0,82,30.17,7.0,NNE,12.7,-,N/A,,Overcast,20,2013-02-09 07:55:00
2:15 AM,55.4,50.0,82,30.17,10.0,NNE,8.1,-,N/A,,Overcast,30,2013-02-09 08:15:00
2:35 AM,55.4,50.0,82,30.18,7.0,NNE,9.2,-,N/A,,Mostly Cloudy,20,2013-02-09 08:35:00
2:55 AM,53.6,50.0,88,30.18,7.0,NNE,9.2,-,N/A,,Overcast,30,2013-02-09 08:55:00
3:15 AM,53.6,46.4,77,30.18,10.0,NE,9.2,-,N/A,,Scattered Clouds,40,2013-02-09 09:15:00
3:35 AM,51.8,46.4,82,30.18,7.0,NNE,6.9,-,N/A,,Clear,30,2013-02-09 09:35:00
3:55 AM,51.8,46.4,82,30.18,7.0,NNE,10.4,-,N/A,,Clear,30,2013-02-09 09:55:00
4:15 AM,51.8,46.4,82,30.18,7.0,NNE,8.1,-,N/A,,Clear,30,2013-02-09 10:15:00
4:35 AM,50.0,44.6,82,30.18,7.0,NE,9.2,-,N/A,,Clear,40,2013-02-09 10:35:00
5:15 AM,48.2,44.6,87,30.19,7.0,NNE,8.1,-,N/A,,Clear,30,2013-02-09 11:15:00
5:35 AM,46.4,44.6,93,30.20,7.0,NNE,5.8,-,N/A,,Clear,30,2013-02-09 11:35:00
5:55 AM,46.4,42.8,87,30.21,7.0,NNE,3.5,-,N/A,,Clear,30,2013-02-09 11:55:00
6:15 AM,46.4,42.8,87,30.22,7.0,NNE,4.6,-,N/A,,Clear,20,2013-02-09 12:15:00
6:35 AM,44.6,42.8,93,30.22,5.0,NNE,5.8,-,N/A,,Clear,30,2013-02-09 12:35:00
6:55 AM,44.6,42.8,93,30.23,7.0,Calm,Calm,-,N/A,,Clear,0,2013-02-09 12:55:00
7:15 AM,46.4,42.8,87,30.23,5.0,NNE,5.8,-,N/A,,Clear,20,2013-02-09 13:15:00
7:35 AM,46.4,42.8,87,30.25,7.0,NNE,6.9,-,N/A,,Clear,20,2013-02-09 13:35:00
7:55 AM,46.4,42.8,87,30.25,5.0,NE,6.9,-,N/A,,Clear,50,2013-02-09 13:55:00
8:15 AM,50.0,44.6,82,30.25,5.0,ENE,4.6,-,N/A,,Haze,70,2013-02-09 14:15:00
8:35 AM,50.0,42.8,76,30.26,4.0,ENE,3.5,-,N/A,,Haze,60,2013-02-09 14:35:00
8:55 AM,51.8,44.6,76,30.26,7.0,ENE,4.6,-,N/A,,Clear,70,2013-02-09 14:55:00
9:35 AM,53.6,44.6,72,30.26,7.0,NE,6.9,-,N/A,,Clear,40,2013-02-09 15:35:00
9:55 AM,55.4,44.6,67,30.26,7.0,NNE,4.6,-,N/A,,Clear,30,2013-02-09 15:55:00
10:15 AM,57.2,44.6,63,30.26,7.0,East,5.8,-,N/A,,Clear,90,2013-02-09 16:15:00
10:55 AM,59.0,44.6,59,30.25,7.0,East,5.8,-,N/A,,Clear,100,2013-02-09 16:55:00
11:15 AM,60.8,46.4,59,30.24,10.0,ENE,9.2,-,N/A,,Clear,70,2013-02-09 17:15:00
11:35 AM,60.8,46.4,59,30.24,7.0,East,3.5,-,N/A,,Clear,90,2013-02-09 17:35:00
11:55 AM,62.6,46.4,55,30.23,7.0,ENE,3.5,-,N/A,,Clear,60,2013-02-09 17:55:00
12:15 PM,64.4,48.2,56,30.22,10.0,ESE,6.9,-,N/A,,Clear,120,2013-02-09 18:15:00
12:35 PM,64.4,48.2,56,30.21,7.0,ENE,3.5,-,N/A,,Clear,70,2013-02-09 18:35:00
12:55 PM,64.4,50.0,59,30.21,10.0,ESE,3.5,-,N/A,,Clear,110,2013-02-09 18:55:00
1:15 PM,64.4,50.0,59,30.19,7.0,SE,4.6,-,N/A,,Clear,130,2013-02-09 19:15:00
1:35 PM,64.4,51.8,64,30.19,7.0,West,4.6,-,N/A,,Clear,260,2013-02-09 19:35:00
1:55 PM,62.6,51.8,68,30.19,7.0,West,3.5,-,N/A,,Clear,280,2013-02-09 19:55:00
2:15 PM,64.4,51.8,64,30.18,10.0,SW,4.6,-,N/A,,Clear,220,2013-02-09 20:15:00
2:35 PM,62.6,51.8,68,30.18,10.0,West,3.5,-,N/A,,Clear,270,2013-02-09 20:35:00
3:15 PM,64.4,51.8,64,30.17,7.0,Calm,Calm,-,N/A,,Clear,0,2013-02-09 21:15:00
3:35 PM,66.2,53.6,64,30.16,7.0,Calm,Calm,-,N/A,,Clear,0,2013-02-09 21:35:00
3:55 PM,66.2,53.6,64,30.16,10.0,South,4.6,-,N/A,,Scattered Clouds,180,2013-02-09 21:55:00
4:15 PM,64.4,53.6,68,30.15,10.0,Calm,Calm,-,N/A,,Scattered Clouds,0,2013-02-09 22:15:00
4:35 PM,68.0,53.6,60,30.14,7.0,East,8.1,-,N/A,,Clear,90,2013-02-09 22:35:00
5:15 PM,62.6,53.6,72,30.14,10.0,SE,8.1,-,N/A,,Clear,130,2013-02-09 23:15:00
5:35 PM,60.8,53.6,77,30.15,10.0,ESE,5.8,-,N/A,,Clear,120,2013-02-09 23:35:00
5:55 PM,59.0,53.6,82,30.15,7.0,ESE,6.9,-,N/A,,Clear,110,2013-02-09 23:55:00
6:15 PM,59.0,53.6,82,30.15,7.0,SE,6.9,-,N/A,,Clear,130,2013-02-10 00:15:00
6:35 PM,57.2,53.6,88,30.15,7.0,ESE,8.1,-,N/A,,Clear,120,2013-02-10 00:35:00
7:15 PM,55.4,51.8,88,30.16,10.0,East,3.5,-,N/A,,Scattered Clouds,100,2013-02-10 01:15:00
7:35 PM,55.4,53.6,94,30.17,7.0,ESE,3.5,-,N/A,,Mostly Cloudy,110,2013-02-10 01:35:00
7:55 PM,55.4,53.6,94,30.17,7.0,East,4.6,-,N/A,,Overcast,90,2013-02-10 01:55:00
8:15 PM,57.2,53.6,88,30.17,7.0,ENE,4.6,-,N/A,,Mostly Cloudy,70,2013-02-10 02:15:00
8:35 PM,55.4,53.6,94,30.17,7.0,ENE,5.8,-,N/A,,Scattered Clouds,70,2013-02-10 02:35:00
8:55 PM,55.4,53.6,94,30.16,10.0,East,3.5,-,N/A,,Clear,80,2013-02-10 02:55:00
9:35 PM,55.4,51.8,88,30.16,7.0,ENE,3.5,-,N/A,,Clear,60,2013-02-10 03:35:00
9:55 PM,53.6,51.8,94,30.16,7.0,East,3.5,-,N/A,,Clear,80,2013-02-10 03:55:00
10:15 PM,55.4,53.6,94,30.15,7.0,East,3.5,-,N/A,,Clear,80,2013-02-10 04:15:00
10:35 PM,55.4,53.6,94,30.14,7.0,East,5.8,-,N/A,,Clear,90,2013-02-10 04:35:00
10:55 PM,55.4,53.6,94,30.14,7.0,East,6.9,-,N/A,,Clear,80,2013-02-10 04:55:00
11:35 PM,55.4,53.6,94,30.14,7.0,East,4.6,-,N/A,,Clear,90,2013-02-10 05:35:00
11:55 PM,57.2,53.6,88,30.14,7.0,SE,3.5,-,N/A,,Clear,130,2013-02-10 05:55:00